User: anonymous   Login
Location: Songkhla
(7.2000°N, 100.6000°E)
Time: 09:43:36
(UTC+07:00)
Language:

SEEDS - Orbit

View from above orbital plane
View from above orbital plane
View from above satellite
View from above satellite

Ground track
Ground track

The orbit data is extracted from the following two-line orbital elements,

1 32791U 08021J   21216.39925416  .00000269  00000-0  32262-4 0  9990
2 32791  97.5736 199.2540 0013621 159.8525 200.3235 14.91466720719922
Epoch (UTC): 04 August 2021 09:34:55
Eccentricity: 0.0013621
inclination: 97.5736°
perigee height: 584 km
apogee height: 603 km
right ascension of ascending node: 199.2540°
argument of perigee: 159.8525°
revolutions per day: 14.91466720
mean anomaly at epoch: 200.3235°
orbit number at epoch: 71992

The dashed part of the orbit path shows where the satellite is in the earth's shadow,  

DLR